Regional Weather Roundup
Issued by NWS

Home | Current Version | Previous Version | Text Only | Print | Product List | Glossary Off
Versions: 1 2 3 4 5 6 7 8 9 10 11 12 13 14 15 16 17 18 19 20 21 22 23 24 25 26 27 28 29 30 31 32 33 34 35 36 37 38 39 40 41 42 43 44 45 46 47 48 49 50

000
ASUS45 KSLC 210410
RWRUT

UTAH REGIONAL WEATHER ROUNDUP
NATIONAL WEATHER SERVICE SALT LAKE CITY UT
1000 PM MDT SAT SEP 20 2014

UTZ001>011-023>025-210500-

NORTHERN UTAH

CITY           SKY/WX    TMP DP  RH WIND       PRES   REMARKS
HILL AFB       MOCLDY    73  37  27 SE7       30.10F
LOGAN          CLEAR     63  49  60 W3        30.11S
OGDEN          MOCLDY    70  41  34 S5        30.07S
PROVO AIRPORT  CLOUDY    70  54  56 NW3       30.12R
SALT LAKE CITY CLOUDY    73  52  47 S3        30.06S
VERNAL         CLEAR     64  39  39 NW7       30.17R
WENDOVER       CLOUDY    73  39  29 NW6       30.08F
HEBER CITY     PTCLDY    54  45  71 SE3       30.18R
WEST JORDAN    CLEAR     72  37  28 CALM      30.10S

$$

UTZ012>022-026-027-210500-

SOUTHERN UTAH

CITY           SKY/WX    TMP DP  RH WIND       PRES   REMARKS
BRYCE CANYON   CLOUDY    58  49  72 VRB3      30.30S
CEDAR CITY     CLOUDY    62  55  77 N5        30.19R
MILFORD        CLOUDY    63  58  83 NW6       30.17R
MOAB/CYNLANDS  CLEAR     84  34  16 NE22G29   30.00S
PRICE          PTCLDY    74  35  24 VRB5      30.16R
ST GEORGE      PTCLDY    73  57  56 E7        30.01R
KANAB          MOCLDY    63  55  77 S7        30.16F

$$

REGIONAL REPORTS     COLORADO/ARIZONA

CITY           SKY/WX    TMP DP  RH WIND       PRES   REMARKS
CRAIG, CO      CLEAR     47  37  68 S5        30.25S
GRAND JUNCTION MOCLDY    78  40  25 VRB6      30.10R
RIFLE          MOCLDY    70  43  37 SE7       30.18R
MONTROSE       PTCLDY    73  43  33 E7        30.20R
CORTEZ         CLEAR     68  49  50 CALM      30.16R
PAGE, AZ       CLOUDY    79  47  32 SW8       30.06R
GRAND CANYON   MOCLDY    56  54  93 CALM      30.23R
KINGMAN        MOCLDY    78  54  43 SW6       29.98R
FLAGSTAFF      MOCLDY    63  54  72 CALM      30.26R

$$

REGIONAL REPORTS    NEVADA/IDAHO/WYOMING

CITY           SKY/WX    TMP DP  RH WIND       PRES   REMARKS
LAS VEGAS, NV  MOCLDY    87  45  23 NW15      29.83R THUNDER
ELY            CLOUDY    64  46  52 SW7       30.23R
ELKO           MOCLDY    66  46  48 E3        30.15F
POCATELLO, ID  CLEAR     64  46  52 E6        30.13S
BURLEY         PTCLDY    58  48  69 E3        30.09R
EVANSTON, WY   PTCLDY    63  27  25 E8        30.30S
ROCK SPRINGS   CLEAR     61  32  33 NE13      30.30R

$$



USA.gov is the U.S. government's official web portal to all federal, state and local government web resources and services.